www.pogodaiklimat.ru

Погода и климат >> Архив погоды >> Россия >> Архангельская область >> Остров Хейса


АРХИВ ПОГОДЫ на Острове Хейса

Время (UTC), дата Ветер
(напр.,м/с)
 
Видим.   Явления Облачность Т
(С)
Тd
(С)
f
(%)
Тe
(С)
Тes
(С)
Комфортность P
(гПа)
Po
(гПа)
Тmin
(С)
Tmax
(С)
R
(мм)
R24
(мм)
S
(см)
18 6.11 СВ 8
{17}
20 км позёмок {метель} 1/0
[Ci fib]
-10.0 -13.4 76 -20 -20 по сезону 1021.0 1018.0 -8.5
21 6.11 СВ 13
{14}
20 км позёмок {метель} 5/1 600 м
[Sc Ac trans]
-11.9 -14.1 84 -24 -24 по сезону 1022.2 1019.2
00 7.11 СВ 13-16
{18}
20 км позёмок {метель} 9/9 800 м
[Sc]
-11.8 -13.3 89 -24 -24 по сезону 1023.8 1020.8 -12.2
03 7.11 СВ 10
{16}
20 км сильный позёмок {метель} 8/0
[Ci fib]
-12.0 -15.3 76 -23 -23 по сезону 1025.5 1022.5
06 7.11 СВ 12
{17}
20 км сильный позёмок {метель} 8/0
[Ci fib]
-12.5 -14.6 84 -25 -25 по сезону 1026.4 1023.4 -13.1
09 7.11 СВ 11
{15}
20 км сильный позёмок {метель} 9/9 750 м
[Sc]
-12.3 -14.8 82 -24 -24 по сезону 1028.3 1025.3
12 7.11 СВ 10
{15}
20 км сильный позёмок {метель} 9/9 800 м
[Sc]
-12.1 -14.8 80 -23 -23 по сезону 1029.8 1026.8
15 7.11 С 10-12
{16}
20 км сильный позёмок {метель} 8/8 300 м
[Sc]
-12.1 -16.0 73 -23 -23 по сезону 1030.8 1027.8
18 7.11 СВ 10
{16}
4000 м слабый ливневой снег {метель} 8/8 400 м
[Cb cap]
-12.8 -14.8 85 -24 -24 по сезону 1031.3 1028.2 -11.6
21 7.11 С 8
{14}
20 км позёмок {ливн. осадки, метель} 3/3 300 м
[Cb cap]
-12.9 -15.9 78 -23 -23 по сезону 1032.3 1029.3
00 8.11 С 6
{14}
20 км позёмок {ливн. осадки, метель} 9/9 700 м
[Sc]
-12.2 -15.6 76 -21 -21 по сезону 1032.8 1029.7
03 8.11 С 8 20 км позёмок {метель} 8/3 600 м
[Sc Ac trans Ci fib]
-12.0 -16.5 69 -22 -22 по сезону 1032.6 1029.6
06 8.11 С 7 20 км позёмок {метель} 9/0 1350 м
[Ac trans]
-11.5 -16.1 69 -21 -21 по сезону 1032.3 1029.3 0.3
09 8.11 СВ 5 20 км позёмок {метель} 8/6 600 м
[Sc Ci fib]
-11.8 -16.4 69 -20 -20 по сезону 1032.9 1029.8
12 8.11 СВ 4 20 км позёмок {метель} 8/5 600 м
[Sc Ci fib]
-11.8 -15.3 75 -19 -19 по сезону 1032.6 1029.6
15 8.11 СВ 1 20 км {метель} 9/9 600 м
[Sc]
-11.5 -15.5 72 -14 -14 тепло 1032.3 1029.3
18 8.11 ЮЗ 3 4000 м слабый снег {метель} 10/1 600 м
[Sc As op]
-12.1 -14.9 80 -18 -18 по сезону 1031.5 1028.5
21 8.11 ЮЗ 3 4000 м слабый снег 10/8 600 м
[Sc As op]
-10.5 -12.5 85 -16 -16 тепло 1030.7 1027.7
00 9.11 ЮЗ 2 4000 м слабый снег 10/6 800 м
[Sc As op]
-8.4 -9.7 90 -13 -13 тепло 1029.9 1026.9
03 9.11 З 2 4000 м слабый снег 10/0
[As op]
-6.8 -8.5 88 -11 -11 тепло 1029.0 1026.0
06 9.11 ЮЗ 2 20 км {снег} 6/0
[Ci fib]
-8.4 -10.8 83 -13 -13 тепло 1028.0 1025.0 1
09 9.11 ЮЗ 6 20 км позёмок {метель} 9/0
[Ac und]
-4.3 -6.1 87 -12 -12 тепло 1025.7 1022.8
12 9.11 З 11
{15}
20 км позёмок {метель} 9/0
[Ac und]
-3.0 -4.0 93 -13 -13 тепло 1022.1 1019.2
15 9.11 З 16
{20}
2000 м метель 9/0
[Ac und]
-2.3 -3.3 93 -13 -13 тепло 1018.6 1015.7
18 9.11 З 13
{20}
4000 м метель 9/3 600 м
[Sc Ac und]
-2.0 -3.0 93 -12 -12 тепло 1015.3 1012.5 -2.2 0.2
21 9.11 З 15
{21}
2000 м метель 9/9 630 м
[Sc]
-1.5 -2.1 96 -12 -12 тепло 1010.8 1008.0
00 10.11 З 14
{21}
4000 м метель 9/9 600 м
[Sc]
-1.0 -1.5 96 -11 -11 тепло 1007.6 1004.8
03 10.11 СЗ 14
{19}
4000 м метель 10/5 600 м
[Sc Ac trans Ci fib]
-2.5 -3.9 90 -13 -13 тепло 1005.7 1002.8
06 10.11 СЗ 6
{21}
20 км позёмок {метель} 10/5 600 м
[Sc Ci fib]
-5.4 -8.5 79 -13 -13 тепло 1007.0 1004.1 -5.4
09 10.11 СЗ 9
{14}
20 км позёмок {метель} 4/0
[Ci fib]
-5.7 -8.9 78 -15 -15 тепло 1006.5 1003.6
12 10.11 СЗ 15
{21}
2000 м метель 10/5 600 м
[Sc Ci fib]
-6.0 -8.3 84 -17 -17 тепло 1004.1 1001.2
15 10.11 С 7
{21}
20 км позёмок {метель} 9/9 600 м
[Sc]
-6.7 -8.9 84 -15 -15 тепло 1006.6 1003.7
18 10.11 С 5
{21}
4000 м слабый снег {метель} 10/8 600 м
[Sc As op]
-7.1 -9.9 80 -15 -15 тепло 1007.2 1004.3 -2.5
21 10.11 С 7 20 км {снег, метель} 8/8 630 м
[Sc]
-7.7 -10.3 82 -16 -16 тепло 1007.5 1004.6
00 11.11 СВ 6 20 км {снег, метель} 10/8 500 м
[Sc Ac trans Ci fib]
-8.6 -10.0 90 -17 -17 тепло 1007.9 1005.0
03 11.11 В 5 20 км 10/0
[Ac trans Ci fib]
-9.3 -10.8 89 -17 -17 тепло 1008.2 1005.3
06 11.11 В 3 20 км 10/0
[Cs]
-8.7 -10.6 86 -15 -15 тепло 1008.5 1005.6 0.2
09 11.11 В 6 20 км 10/4 300 м
[Sc Ac trans Cs]
-8.1 -10.7 82 -16 -16 тепло 1008.9 1006.0
12 11.11 Ю 3 4000 м слабый снег 10/3 600 м
[Sc As op]
-6.9 -9.6 81 -13 -13 тепло 1009.0 1006.1
15 11.11 Ю 3 4000 м слабый снег 10/5 700 м
[Sc As op]
-6.4 -9.1 81 -12 -12 тепло 1008.9 1006.0
18 11.11 Ю 5 н/о н/о -6.0 -8.9 80 -13 -13 тепло 1008.5 1005.6
21 11.11 Ю 6 20 км 10/10 630 м
[Sc]
-5.8 -8.5 81 -14 -14 тепло 1008.1 1005.2
00 12.11 ЮВ 6 20 км 10/10 600 м
[Sc]
-5.8 -8.3 82 -14 -14 тепло 1006.4 1003.5 -6.9
03 12.11 ЮВ 8-12
{12}
4000 м слабый снег {метель} 10/9 700 м
[Sc As op]
-5.7 -6.8 92 -15 -15 тепло 1004.2 1001.3
06 12.11 Ю 11
{14}
4000 м слабый снег {метель} 10/0
[As op]
-5.4 -6.8 90 -16 -16 тепло 1000.9 998.0 0.2
09 12.11 ЮВ 12
{17}
4000 м слабый снег {метель} 10/8 270 м
[Frnb As op]
-5.2 -6.7 89 -16 -16 тепло 997.1 994.2
12 12.11 ЮВ 14
{19}
2000 м слабый снег {метель} 10/8 270 м
[Frnb As op]
-4.9 -6.2 91 -16 -16 тепло 993.0 990.2
15 12.11 ЮВ 14
{20}
2000 м слабый снег {метель} 10/8 270 м
[Frnb As op]
-5.3 -6.7 90 -16 -16 тепло 990.4 987.6
18 12.11 В 12
{20}
4000 м слабый снег {метель} 10/10 270 м
[Frnb Ns]
-5.7 -7.5 87 -16 -16 тепло 990.0 987.2 -4.8 3
21 12.11 В 16
{19}
2000 м слабый снег {метель} 10/10 210 м
[Frnb Ns]
-6.5 -9.7 78 -18 -18 по сезону 990.4 987.5
00 13.11 СВ 18
{21}
1000 м сильная метель {снег} 10/8 720 м
[Sc Ci fib]
-7.9 -9.8 86 -21 -21 по сезону 992.3 989.4
03 13.11 СВ 16
{22}
1000 м сильная метель 9/8 660 м
[Sc Ac trans]
-9.9 -12.7 80 -23 -23 по сезону 995.0 992.0
06 13.11 СВ 14
{22}
2000 м метель 8/0
[Ac trans]
-11.4 -14.2 80 -24 -24 по сезону 997.7 994.8 -11.4 1
09 13.11 СВ 9
{18}
20 км позёмок {метель} 3/0
[Ac trans]
-13.8 -16.4 81 -25 -25 по сезону 1001.0 998.0
12 13.11 СВ 11
{15}
20 км позёмок {метель} 8/0
[Ac trans]
-15.5 -18.3 79 -28 -28 по сезону 1003.1 1000.1

 

Местоположение метеостанции Остров Хейса (Архангельская область, Россия): широта 80.62 долгота 58.05 высота над уровнем моря 25 м.

В архиве по умолчанию представлена погода на Острове Хейса за последнюю неделю. Архивные данные за месяц целиком и за предыдущие месяцы, начиная с января 2011 года, Вы можете получить, выбрав интересующий диапазон дат из раскрывающегося списка и нажав кнопку "Ввод!".


*Определитесь, кто Вы:
робот инопланетянин человек

Внимание! Время в таблицах - всемирное. Для получения местного времени необходимо прибавить поправку, которая на Острове Хейса равна 3 ч.

Смотрите также архив погоды в соседних городах и на ближайших метеорологических станциях:

Погода на Острове Визе (Красноярский край, Россия) (382 км)
Погода на Мысе Желания (Архангельская область, Россия) (466 км)
Погода в Kvitoya (Норвегия) (495 км)
Погода в Karl XII Oya (Норвегия) (590 км)
Погода в Kongsoya (Норвегия) (598 км)
Погода на Острове Уединения (Красноярский край, Россия) (610 км)
Погода на Острове Голомянный (Красноярский край, Россия) (626 км)
Погода в Edgeoya (Норвегия) (751 км)
Погода на Островах Известий ЦИК (Красноярский край, Россия) (754 км)
Погода в Verlegenhuken (Норвегия) (766 км)

Пояснения к столбцам:

Ветер - указаны скорость ветра в м/с - средняя за 10 мин, порывы в срок и между сроками (в фигурных скобках) и направление, откуда дует ветер: С - северный, СВ - северо-восточный, В - восточный, ЮВ - юго-восточный, Ю - южный, ЮЗ - юго-западный, З - западный, СЗ - северо-западный.
Видимость - горизонтальная дальность видимости в метрах или километрах. При видимости от 1 до 10 км при отсутствии осадков обычно наблюдается дымка, при ухудшении видимости до 1 км и менее - туман. В сухую погоду видимость может ухудшаться дымом, пылью или мглою.
Явления - указаны атмосферные явления, наблюдавшиеся в срок или в последний час перед сроком; фигурными скобками обозначены явления, наблюдавшиеся между сроками (за 1-3 часа до срока); квадратными скобками обозначены град или гололедные отложения с указанием их диаметра в мм.
Облачность - указаны через наклонную черту общая и нижняя облачность в баллах и высота нижней границы облаков в метрах; квадратными скобками обозначены формы облаков: Ci - перистые, Cs - перисто-слоистые, Cc - перисто-кучевые, Ac - высококучевые, As - высокослоистые, Sc - слоисто-кучевые, Ns - слоисто-дождевые, Cu - кучевые, Cb - кучево-дождевые. Подробнее классификацию облаков см. в Атласе облаков (PDF).
T - Температура воздуха - температура, измеренная на высоте 2 м над землей.
Td - Температура точки росы - температура, при понижении до которой содержащийся в воздухе водяной пар достигнет насыщения.
f - Относительная влажность воздуха - влажноcть воздуха, измеренная на высоте 2 м над землей.
Te - Эффективная температура - температура, которую ощущает одетый по сезону человек в тени. Характеристика душности погоды. При расчете учитывается влияние влажности воздуха и скорости ветра на теплоощущения человека.
Tes - Эффективная температура на солнце - температура, которую ощущает человек, с поправкой на солнечный нагрев. Характеристика знойности погоды. Зависит от высоты солнца над горизонтом, облачности и скорости ветра. Ночью, в пасмурную погоду, а также при ветре 12 м/с и более поправка равна нулю.
P - Атмосферное давление - приведенное к уровню моря атмосферное давление.
Po - Атмосферное давление - измеренное на уровне метеостанции атмосферное давление.
Tmin - Минимальная температура - минимум температуры воздуха на высоте 2 м над землей.
Tmax - Максимальная температура - максимум температуры воздуха на высоте 2 м над землей.
R - Количество осадков - Количество выпавших осадков за период времени, мм. При наведении курсора мыши на число - период времени, за который выпало указанное количество осадков.
R24 - Количество осадков - Количество выпавших осадков за 24 часа, мм.
S - Снежный покров - Высота снежного покрова, см. При наведении курсора мыши на число - состояние снежного покрова и степень покрытия местности в баллах.